Cosmos 389 Rocket - Orbit

View from above orbital plane
View from above orbital plane
View from above satellite
View from above satellite

Ground track
Ground track

The orbit data is extracted from the following two-line orbital elements,

1 04814U 70113B   13141.47494658  .00005623  00000-0  26019-3 0  1939
2 04814 081.1493 353.8018 0036990 096.4955 264.0489 15.19335508307450
Epoch (UTC): 21 May 2013 11:23:55
Eccentricity: 0.0036990
inclination: 81.1493°
perigee height: 482 km
apogee height: 533 km
right ascension of ascending node: 353.8018°
argument of perigee: 96.4955°
revolutions per day: 15.19335508
mean anomaly at epoch: 264.0489°
orbit number at epoch: 30745

The dashed part of the orbit path shows where the satellite is in the earth's shadow,  

Developed and maintained by Chris Peat, Heavens-Above GmbH. Please read the updated FAQ before sending e-mail. Imprint. DLR